Weather in Melnik

Bulgaria     41°31′27″N   23°23′28″E
temp.,
°C
wind,
m/s
gust,
m/s
humid.,
%
clouds,
%
prec.,
mm/h
press.,
hPa
HPBL,
m
9 march, tue
tue923:00+6nne117990 0.1 101878
02:00+5ne118895 0.8 1018201
05:00+4ene2388100 0.3 1018160
08:00+4ene228297 0.4 1019185
11:00+8ssw216787 0.0 1018792
14:00+6ssw228594 0.4 1017328
17:00+6wsw118699 0.3 1016280
20:00+5s119399 0.6 1017157
10 march, wed
wed1023:00+5e1283100 0.2 1018196
02:00+3e2281100 0.2 101735
05:00+4e2282100 0.0 101562
08:00+4e238297 0.0 1015140
11:00+7sw235991 0.0 1013742
14:00+7sw126496 0.2 1012683
17:00+6sw1273100 0.4 1011484
20:00+5ne118596 0.6 101330
11 march, thu
thu1123:00+5wnw0194100 3.6 1015114
02:00+4wnw1296100 5.3 1016202
05:00+2wnw1296100 4.2 1016179
08:00+1n1294100 5.3 1018214
11:00+3wsw1282100 1.1 1021514
14:00+5w227199 1.3 1021765
17:00+5w236999 0.4 1022766
20:00+2w118296 0.8 102528
12 march, fri
fri1223:000wsw018758 0.1 102722
02:00−1wnw019329 0.1 102722
05:000nnw019110 0.0 102625
08:00+1sw118623 0.0 1026164
11:00+3sw2281100 0.1 1026518
14:00+5wsw2272100 0.1 1024688
17:00+5wsw2277100 0.0 1022531
20:00+2wsw0190100 0.0 102268
13 march, sat
sat1323:00+2nw0192100 0.0 102323
02:00+2wnw0094100 0.0 102268
05:00+2wsw1195100 0.0 102048
08:00+3ssw1186100 0.0 1020121
11:00+6wsw217897 0.0 1020452
14:00+8sw327199 0.0 1018584
17:00+7sw2275100 0.0 1017456
20:00+5sw1188100 0.0 101823